Wind_Speed
8 7 7 9 12 11 10 9 8 7 6 6 8 8 8 7 7 8 9 9 10 10 10 10 9 9 8 7 6 6 6 6 6 6 6 6 6 7 6 6 6 6 7 9 11 12 11 11 10 9 8 7 6 6 6 7 7 8 8 7 7 7 7 7 6 6 6 5 5 6 6 7 6 5 6 5 4 4 3 3 2 3 6 7 8
8 7 7 8 10 11 11 10 9 8 6 8 8 7 7 6 6 8 9 9 10 11 11 11 10 9 7 7 6 6 7 7 7 7 7 7 6 6 6 6 7 8 10 12 12 12 11 10 9 8 7 6 6 6 6 7 7 7 7 7 7 7 7 7 7 6 6 5 5 5 6 6 7 6 5 4 2 2 2 1 1 1 4 6 8
8 8 8 9 10 11 11 10 10 9 8 9 8 7 7 6 7 8 9 9 10 11 12 12 11 9 8 7 7 7 7 7 7 7 7 7 7 6 6 7 9 11 12 13 13 12 10 9 8 7 6 6 6 6 7 7 7 7 6 6 6 7 7 7 7 6 6 5 5 5 5 4 5 6 5 3 1 1 2 2 1 0 1 4 6
8 8 9 9 9 10 10 10 10 10 9 9 8 8 8 8 8 10 10 11 11 12 12 12 11 10 9 8 8 8 8 7 7 7 7 7 7 7 8 10 12 13 14 13 12 11 10 8 7 6 6 6 6 6 6 7 6 6 6 6 6 7 7 7 7 6 6 5 5 5 5 4 4 4 4 3 1 1 1 1 1 0 0 1 3
8 8 8 8 9 9 9 9 10 10 9 9 8 8 9 9 10 12 12 12 12 12 12 11 11 10 10 10 9 8 8 7 7 7 7 7 7 9 11 13 15 15 14 13 12 10 9 8 7 6 5 5 5 6 6 6 6 7 7 7 7 7 7 7 7 7 7 6 5 5 5 4 4 3 2 2 2 2 1 1 1 0 0 1 2
8 8 8 8 9 9 9 9 10 10 9 9 9 9 11 12 13 14 14 13 13 12 11 10 10 10 10 10 9 8 8 8 8 7 7 7 8 10 12 14 15 15 14 13 11 10 8 7 6 5 4 4 4 5 5 6 7 7 7 7 7 7 7 7 8 8 8 8 6 5 5 4 3 2 2 1 2 2 2 1 1 1 1 1 2
9 9 8 8 9 9 9 10 10 9 9 9 9 11 13 14 15 15 15 14 13 12 11 10 10 10 10 10 9 8 7 8 8 7 7 8 9 11 13 14 15 15 14 13 11 10 8 7 5 4 4 3 4 4 5 6 6 7 6 6 6 6 7 8 9 9 8 9 8 6 5 4 3 2 2 2 2 2 2 2 1 1 1 1 1
11 11 10 9 9 9 10 10 10 10 8 9 11 12 14 15 16 15 15 14 13 12 11 11 10 11 11 10 10 9 8 8 8 7 8 9 10 12 13 13 14 14 13 12 11 9 8 7 5 4 3 3 3 4 5 6 6 6 6 6 6 7 8 9 9 9 9 9 7 6 5 4 3 3 3 2 3 3 3 3 2 1 1 1 1
12 11 10 9 9 10 10 11 11 9 8 10 14 14 15 16 16 15 14 13 13 12 12 11 11 11 11 11 10 9 8 8 8 8 8 9 11 12 12 12 12 13 12 11 10 9 8 6 5 4 3 2 2 3 4 5 5 5 6 7 7 8 9 10 10 9 9 9 7 6 5 3 3 3 3 3 3 4 4 3 3 2 2 2 2
12 10 9 8 8 9 11 11 10 10 11 14 15 15 16 16 15 14 14 13 12 12 12 12 12 12 12 11 10 10 9 8 8 8 8 9 10 11 11 11 11 11 11 10 9 8 7 6 4 3 3 2 2 2 3 3 4 5 6 7 8 9 10 10 10 9 8 9 8 6 5 4 3 3 3 3 4 5 4 3 2 2 2 2 2
8 9 8 7 6 6 9 12 12 14 15 16 16 16 16 15 14 14 13 12 12 12 12 12 12 12 12 11 11 10 9 9 8 7 8 9 10 10 10 10 10 10 10 9 8 7 6 5 4 3 2 1 1 2 2 3 4 5 6 7 8 9 10 10 9 9 8 8 7 6 5 5 4 3 3 4 5 5 4 3 2 2 3 3 3
9 9 8 8 8 8 11 15 15 15 16 17 16 15 15 14 13 12 12 12 11 12 12 12 12 12 12 11 10 10 9 9 8 7 8 9 10 10 10 10 9 9 9 8 7 7 6 5 4 3 2 1 1 2 2 3 4 6 7 8 9 10 10 10 9 9 9 8 7 6 6 5 4 3 3 4 5 4 3 2 2 3 3 4 4
9 10 10 9 9 10 13 14 13 13 14 16 16 14 13 12 11 11 11 11 11 11 11 12 12 12 12 11 10 9 9 8 8 7 8 9 10 10 10 10 9 9 8 8 7 6 6 5 4 3 2 1 1 1 3 4 5 6 7 8 9 10 10 10 10 9 9 9 7 7 5 4 3 3 4 5 5 4 2 1 2 3 3 3 4
5 8 10 9 10 10 11 11 11 12 12 13 14 12 11 11 10 10 10 10 10 11 11 11 11 11 11 11 10 9 8 8 8 7 7 8 9 10 10 10 9 9 8 8 7 6 5 5 4 3 2 0 1 2 3 4 5 6 7 8 10 10 10 10 10 10 9 8 7 6 5 3 2 2 4 4 4 3 2 1 1 2 4 4 4
4 7 8 9 9 9 9 9 10 11 11 12 12 11 10 10 9 9 9 9 9 10 10 10 10 10 10 10 10 9 8 7 7 7 7 8 9 9 10 10 9 9 8 8 7 6 5 5 4 3 1 1 1 3 4 5 6 7 7 8 9 10 10 10 11 11 9 8 6 5 3 2 2 2 4 4 4 4 3 2 1 2 4 4 5
5 6 7 7 8 8 8 8 8 9 10 10 11 11 10 9 9 9 9 9 9 9 9 9 10 10 9 10 9 9 8 7 7 6 7 8 9 9 10 10 9 9 9 8 7 6 6 5 4 3 2 1 2 3 5 6 7 7 8 9 10 10 10 11 12 11 9 7 5 4 2 2 1 2 4 4 5 4 3 3 1 2 3 5 5
4 6 7 6 6 7 7 7 7 7 8 9 9 10 10 10 9 9 9 9 9 9 9 10 10 10 10 10 9 9 8 7 7 6 7 8 9 10 10 10 10 9 9 8 7 7 6 5 4 3 2 2 3 4 5 6 8 9 10 10 10 10 11 12 11 9 8 6 5 4 3 1 1 2 3 4 5 4 4 4 3 3 4 5 6
4 5 6 6 6 6 6 6 6 6 7 7 8 9 9 9 9 9 9 9 9 9 9 9 10 10 10 10 10 9 8 7 7 7 7 8 9 10 11 10 10 10 9 9 8 7 7 6 5 3 3 3 4 5 6 7 9 10 11 11 10 11 12 11 10 8 7 6 6 5 3 1 1 2 4 4 5 5 6 6 5 5 5 6 7
4 5 6 6 6 6 6 6 6 7 7 7 8 8 8 8 8 8 8 8 9 9 9 9 10 10 10 10 10 10 9 8 8 8 8 9 10 10 11 11 10 10 10 9 9 8 7 6 5 4 3 4 4 5 6 8 9 10 11 11 11 11 11 11 9 8 6 6 6 5 4 2 2 3 4 5 5 6 7 8 8 8 8 9 9
3 4 5 5 6 6 6 6 6 7 7 7 7 7 7 8 8 8 8 8 9 9 9 9 9 10 11 11 10 10 10 9 9 9 9 10 10 10 10 11 11 10 10 9 9 8 7 6 5 4 3 4 4 5 6 7 8 9 10 11 11 12 11 10 9 7 6 6 6 6 4 3 3 4 5 5 6 7 8 10 11 11 11 11 11
3 4 4 4 4 5 6 6 7 7 7 8 8 7 8 8 7 7 8 8 9 9 9 9 9 10 12 11 10 11 10 10 10 10 10 10 10 10 10 10 10 10 10 10 9 8 8 7 5 4 3 4 4 4 5 6 8 10 11 11 12 12 11 9 8 7 6 6 6 6 5 3 4 4 5 6 8 9 9 11 12 13 13 13 13
3 4 4 4 4 5 5 6 7 8 8 8 8 8 8 8 7 7 8 8 8 9 9 9 9 10 11 10 11 11 11 11 10 10 10 9 9 9 9 10 11 11 11 10 10 9 8 7 5 4 4 4 2 3 5 6 8 10 11 12 12 11 11 10 8 7 6 5 6 6 5 4 4 5 6 8 9 10 10 11 12 12 13 13 13
2 3 4 5 5 5 5 6 7 8 8 8 8 8 8 8 8 7 8 8 8 8 8 8 8 9 10 10 11 12 11 10 10 10 10 9 8 8 9 10 12 12 11 11 9 8 8 6 5 4 4 4 2 2 5 5 7 9 10 11 11 11 11 10 9 8 6 5 5 5 4 4 4 5 6 8 9 10 11 11 11 11 12 13 14
3 2 3 4 4 5 6 6 6 7 8 8 8 9 9 9 8 7 8 8 8 8 9 9 8 8 10 10 11 12 10 10 10 10 9 8 8 8 9 11 11 11 11 10 8 8 7 6 5 5 4 4 3 3 4 5 6 8 9 10 10 10 10 9 8 8 7 5 5 5 4 3 4 5 6 7 8 10 11 11 11 11 12 13 13
3 3 4 4 4 5 6 7 8 7 7 7 7 8 9 8 8 8 8 9 9 8 8 9 8 8 10 11 12 12 11 10 10 9 8 8 8 9 10 10 11 11 11 9 8 7 6 5 6 6 5 4 4 3 3 3 6 7 8 8 8 8 8 7 6 6 7 6 6 5 4 3 4 5 6 6 8 9 11 11 11 12 13 13 14
2 3 4 5 5 5 6 7 8 8 8 7 7 8 9 8 9 9 9 10 10 10 9 9 9 9 10 13 14 11 10 10 9 9 9 9 10 10 10 10 11 11 10 8 7 6 5 5 6 6 5 5 5 3 2 2 4 5 6 7 6 7 7 7 6 6 7 7 7 6 5 4 4 6 6 6 8 9 10 10 11 13 13 14 15
3 2 3 4 5 4 4 5 7 8 8 8 7 7 9 9 9 8 9 11 11 12 11 10 11 10 10 14 14 10 8 9 10 10 10 10 11 11 9 10 11 11 10 8 6 6 5 5 5 5 5 5 5 4 3 2 3 4 4 5 6 7 6 6 6 6 7 8 8 8 7 5 6 7 6 7 9 10 10 10 12 13 14 15 16
4 3 3 3 3 3 3 3 5 6 7 8 7 8 9 9 9 8 9 11 12 13 13 11 12 12 10 13 14 11 9 10 11 10 10 11 11 10 9 11 11 10 9 6 6 5 5 5 5 4 5 5 4 4 4 3 3 3 3 2 4 7 6 5 5 6 7 8 8 8 8 7 7 8 8 8 10 10 11 11 13 14 14 15 16
4 4 5 2 2 2 2 4 5 5 6 7 7 8 9 8 9 8 8 10 13 14 13 13 14 13 12 13 15 13 10 10 11 11 10 10 10 10 10 10 9 7 7 5 4 4 4 5 6 5 5 4 2 3 4 4 3 3 2 2 2 4 7 7 5 6 8 8 8 8 8 8 8 9 9 9 10 10 10 12 14 15 15 16 17
4 4 6 4 2 2 3 4 4 5 6 6 6 9 9 8 9 9 9 10 12 14 13 14 15 14 14 16 16 14 12 11 11 10 9 9 9 10 9 8 7 7 7 5 5 5 4 5 6 5 4 2 2 3 5 5 5 4 3 3 1 2 6 7 6 7 8 8 7 8 8 8 8 8 9 9 9 10 11 12 15 16 16 17 17
4 4 5 5 4 3 3 3 4 5 5 5 7 9 10 9 10 9 9 10 12 13 13 14 15 13 13 16 16 13 12 11 10 9 9 8 9 9 8 6 6 7 6 5 5 5 4 3 4 3 2 1 2 3 5 5 6 6 4 4 2 5 5 5 7 8 8 6 6 7 7 8 9 8 8 8 9 10 11 12 15 16 16 16 18
4 4 4 5 5 5 4 4 4 5 5 6 7 9 9 9 9 8 9 10 11 11 10 13 16 12 12 14 14 14 13 11 10 9 8 8 8 8 9 8 8 7 5 4 4 4 3 2 2 2 1 1 2 2 4 5 5 6 7 5 5 7 5 3 6 7 6 6 7 8 7 9 10 8 8 8 9 10 11 12 14 16 16 17 19
4 3 4 5 5 6 5 4 5 6 6 7 7 7 9 9 9 9 9 9 10 9 8 13 17 13 14 15 15 15 12 10 10 9 8 8 8 9 10 10 8 6 5 4 3 2 1 1 2 1 1 2 3 3 5 6 5 7 9 7 5 8 7 5 6 6 6 7 7 9 8 9 9 8 8 8 9 10 11 12 14 15 17 18 19
5 4 4 5 5 6 6 5 5 5 6 7 7 8 9 9 7 7 9 9 9 9 7 13 15 12 13 15 14 12 10 9 9 9 9 9 10 9 9 9 7 6 5 3 2 2 1 1 3 2 1 3 5 4 5 6 7 8 8 9 7 8 8 8 9 8 9 9 7 9 10 10 9 8 8 9 9 9 10 12 14 15 17 18 18
5 4 5 6 5 5 6 5 6 5 6 7 7 7 8 8 7 8 10 9 9 10 11 13 14 11 11 11 11 9 9 10 10 10 10 10 10 9 8 8 6 5 4 3 2 2 2 2 2 2 2 3 4 5 7 5 7 8 6 11 11 9 8 8 10 9 8 7 6 8 9 7 7 8 9 9 8 9 10 12 15 16 16 17 19
5 6 5 6 6 4 5 6 6 5 5 7 7 6 7 7 8 9 10 10 9 11 14 14 13 11 10 10 10 10 10 11 11 10 11 12 11 10 9 8 6 4 3 3 3 3 2 2 0 2 4 2 3 6 7 5 7 8 7 10 11 9 8 9 9 7 6 6 6 6 6 4 5 7 9 8 8 10 10 11 14 16 16 17 20
3 6 6 6 6 5 6 7 6 5 5 5 6 7 7 7 7 8 8 10 10 11 15 15 13 11 10 11 11 11 11 11 11 10 12 13 12 13 11 8 7 5 4 4 5 4 3 3 2 1 3 2 3 4 6 5 5 8 8 8 8 9 9 9 8 7 7 7 6 7 6 6 7 7 7 8 9 10 10 11 13 15 16 17 20
2 6 7 6 6 6 7 7 6 5 5 5 5 7 6 5 6 6 7 9 9 10 13 13 12 11 11 11 11 10 10 10 9 11 13 14 13 13 10 8 8 6 5 5 4 3 2 3 3 2 1 1 2 3 5 5 4 5 6 6 7 8 7 7 7 7 8 9 7 6 7 7 8 7 7 8 9 9 9 12 11 13 15 17 20
5 5 6 6 6 6 6 7 5 4 4 4 4 5 5 4 5 5 7 8 7 8 10 11 11 11 11 10 9 9 8 8 9 12 15 14 12 11 9 7 7 7 6 4 3 2 2 2 3 2 1 0 2 2 3 3 4 4 4 6 6 6 6 5 6 7 9 10 6 5 7 8 7 7 7 8 9 8 10 11 11 12 13 16 19
6 5 6 7 6 5 5 7 6 5 4 4 3 4 4 4 4 4 6 6 7 8 10 11 11 11 10 8 8 7 7 9 11 14 16 14 11 10 9 8 7 6 6 4 3 2 2 2 2 2 1 1 2 2 2 2 3 4 5 6 5 6 6 6 8 9 9 10 8 6 8 8 6 6 8 9 8 9 10 9 10 12 13 16 19
6 6 6 7 6 4 4 5 6 6 5 5 4 3 3 3 3 4 4 5 6 8 9 10 11 10 9 8 7 8 8 10 13 15 15 13 10 10 9 7 6 5 5 4 3 2 1 2 2 2 1 1 2 2 2 2 3 4 6 7 6 7 7 8 10 11 8 9 10 9 8 7 7 9 9 9 9 10 9 9 10 12 14 17 19
6 7 6 6 5 5 4 4 5 5 4 3 3 2 3 2 3 4 5 5 5 6 7 8 10 9 9 8 8 8 10 13 15 15 13 11 10 9 8 7 6 5 4 4 4 3 2 2 2 1 1 1 3 2 2 3 4 5 5 7 8 8 9 9 10 11 9 8 10 9 8 8 10 10 9 9 10 11 10 11 12 12 15 17 19
5 7 7 6 5 4 4 5 5 4 2 1 1 2 2 2 3 4 5 5 5 5 5 5 7 9 9 9 9 10 12 14 15 13 12 11 9 8 7 6 6 5 5 4 4 3 2 2 1 1 0 2 3 3 3 4 5 5 5 7 8 8 8 9 9 10 11 10 9 8 8 9 10 10 10 9 10 11 10 11 12 13 15 17 18
5 6 6 5 3 2 3 4 4 2 1 1 1 2 2 2 3 4 5 5 4 4 5 6 7 8 9 9 9 12 15 15 13 12 11 10 8 7 7 6 6 5 5 5 4 4 3 2 2 1 2 2 2 2 2 2 4 4 4 6 6 7 8 9 9 11 11 11 9 7 7 9 10 12 12 10 12 12 11 10 11 13 15 16 17
6 6 5 6 3 3 3 3 3 1 1 1 1 2 2 3 3 4 4 5 6 5 6 8 9 10 10 10 11 14 15 14 12 11 10 9 8 7 7 6 5 5 5 5 5 5 4 4 3 2 2 1 1 1 1 2 3 4 4 5 5 6 7 7 9 10 9 8 9 8 8 11 12 13 13 13 13 13 12 11 10 11 12 14 17
6 7 6 6 3 2 1 1 2 2 1 1 2 2 3 4 4 4 3 4 6 7 7 9 10 11 11 12 14 16 15 12 11 10 9 8 7 6 6 6 6 5 5 5 5 5 5 4 3 2 2 1 1 1 1 2 3 3 4 5 6 6 7 7 8 8 8 7 7 7 11 14 13 13 14 14 12 12 12 10 9 8 8 12 17
6 7 6 6 4 1 0 1 1 1 0 1 3 4 4 4 6 5 4 4 5 7 9 10 11 12 12 14 16 15 13 11 10 9 8 7 6 6 6 6 6 5 5 5 5 5 5 3 2 2 2 2 1 1 1 2 3 3 4 5 5 6 6 7 7 8 10 10 8 9 13 14 12 12 13 13 11 11 12 9 6 7 8 12 19
8 7 5 5 4 2 1 1 2 0 1 2 2 4 4 5 6 6 4 4 5 7 9 10 11 12 13 14 15 14 12 11 9 8 7 6 6 6 6 6 6 6 6 6 5 5 4 3 2 3 3 3 2 1 0 1 1 2 3 4 4 5 5 6 7 9 11 11 10 11 12 11 11 11 11 13 13 12 13 12 8 9 10 13 18
9 7 5 5 5 3 1 0 2 1 0 1 2 3 4 5 6 6 6 5 6 6 8 9 10 12 13 13 13 12 11 10 9 8 7 7 7 7 6 6 6 6 6 6 6 5 4 3 3 3 3 3 3 2 2 1 1 2 3 3 4 4 5 7 8 9 10 10 9 11 12 11 10 10 11 13 13 11 10 11 11 12 14 15 17
9 7 6 6 5 4 2 2 1 1 0 1 1 2 3 4 6 7 7 6 7 6 7 9 10 10 12 12 11 10 10 9 9 8 8 7 7 7 7 7 7 7 7 6 6 5 4 4 4 3 3 3 3 2 2 1 1 2 2 3 4 4 5 6 7 8 9 8 7 10 11 10 9 11 12 11 10 10 10 13 14 15 17 18 17
9 8 8 7 6 5 3 2 1 1 1 1 1 2 3 4 5 6 7 7 8 7 6 8 9 9 10 10 9 9 9 9 8 8 8 8 8 8 8 8 8 7 7 6 6 5 5 5 4 3 3 3 3 2 2 2 1 1 2 2 3 4 5 6 6 7 7 6 6 9 10 9 10 11 10 9 10 11 14 16 18 18 19 19 18
Wind_Direction
218 234 234 209 197 200 207 207 200 201 211 196 180 177 176 171 164 156 154 157 157 158 159 157 155 153 153 152 152 152 147 142 137 136 137 136 134 129 123 120 121 122 123 124 125 123 121 119 117 116 114 108 98 84 70 60 55 52 51 53 55 57 57 54 51 45 35 23 9 355 344 340 352 44 84 101 128 165 191 221 225 226 226 219 213
216 221 220 208 197 196 198 197 194 193 190 182 177 178 176 171 163 155 156 157 155 157 157 155 152 151 153 155 155 152 147 145 144 146 146 142 136 129 124 123 126 128 128 127 125 123 121 119 117 113 110 105 99 89 77 67 59 55 51 50 49 49 48 43 39 32 23 13 1 349 346 348 352 20 64 84 111 169 188 201 234 223 219 216 212
219 214 207 203 196 190 190 187 190 191 180 177 179 181 183 178 168 161 158 156 154 154 153 152 150 149 155 159 157 151 147 147 149 148 145 141 135 128 126 129 131 131 129 127 125 123 122 120 115 109 102 95 86 80 75 71 66 62 59 55 52 49 43 36 28 19 12 3 354 348 348 1 6 15 36 49 69 200 196 163 185 106 215 232 230
215 209 203 198 193 190 187 185 190 192 183 181 182 182 185 179 169 161 157 153 152 150 150 150 149 152 158 159 154 148 145 145 146 145 142 139 134 132 133 134 133 131 129 127 127 126 125 122 115 106 94 83 73 66 62 61 60 57 56 55 52 46 38 28 20 12 6 357 353 354 350 11 35 29 23 9 349 279 244 187 209 180 158 260 257
210 208 207 201 198 198 193 189 192 193 188 184 184 182 180 174 166 158 154 151 150 150 151 150 150 153 156 154 150 146 145 143 141 142 141 140 136 135 137 136 133 132 131 130 130 130 127 122 114 106 94 81 70 59 50 46 44 43 43 43 41 36 30 22 18 12 4 357 356 1 352 5 41 50 39 356 315 297 293 283 286 353 87 307 281
207 210 211 208 206 206 199 195 194 194 190 188 186 176 169 166 161 156 152 151 151 151 153 152 152 154 153 152 149 147 144 142 141 143 142 138 135 135 137 136 135 134 134 133 134 133 127 122 115 106 96 83 69 54 44 36 33 33 33 32 31 28 23 19 15 12 4 355 351 359 356 358 31 54 46 3 320 311 312 321 339 17 38 7 315
207 211 210 210 210 210 205 201 199 200 196 193 186 168 162 161 158 155 151 150 152 153 154 155 156 156 154 152 149 147 143 142 143 143 139 135 134 137 139 138 136 135 136 137 137 135 131 127 121 111 99 85 66 49 36 31 29 25 24 23 21 20 19 17 14 10 1 353 348 348 350 356 17 39 31 356 330 327 331 344 353 11 36 32 327
203 209 209 209 210 212 210 208 207 208 206 192 177 164 160 159 156 153 150 149 153 156 156 158 162 160 155 152 150 147 145 145 144 141 137 136 138 140 141 139 137 136 138 139 138 136 136 135 130 120 107 86 62 43 32 28 22 16 13 11 11 13 15 12 9 4 356 352 346 340 346 353 2 20 20 350 330 334 344 1 13 19 3 356 328
198 205 206 206 212 216 216 215 211 207 194 173 164 159 157 155 153 151 149 150 154 158 160 162 165 163 157 154 150 147 147 146 144 140 138 138 139 141 141 140 139 138 138 137 136 137 139 138 133 124 114 94 68 45 34 25 13 6 1 2 4 6 9 8 4 359 354 350 342 341 348 346 358 20 21 351 342 350 357 14 22 19 355 341 340
189 201 198 194 203 212 216 210 198 180 163 158 156 154 154 152 152 151 149 151 156 160 162 166 167 164 158 155 151 148 147 147 146 143 141 140 140 140 141 141 141 139 137 136 137 139 140 137 132 129 127 117 83 50 34 20 4 356 356 357 359 3 6 5 2 356 352 348 340 344 344 339 1 27 31 7 4 8 5 14 18 8 347 334 329
171 182 178 168 164 178 191 181 166 155 150 149 150 151 152 151 151 150 150 153 157 161 164 167 166 163 158 154 150 148 149 147 146 143 142 141 141 143 144 145 143 140 139 139 141 141 140 138 139 146 151 140 80 43 23 6 357 352 353 353 354 2 4 1 360 356 353 348 341 339 334 338 360 19 31 26 23 22 9 1 357 349 338 333 329
135 147 149 141 135 135 147 152 150 147 146 146 148 151 149 148 150 149 151 155 157 161 166 167 164 162 157 154 150 148 149 146 144 143 143 143 145 148 149 148 146 145 145 144 145 146 145 146 156 166 169 144 65 21 2 354 351 348 349 350 353 360 3 3 3 0 356 348 341 333 333 342 356 14 26 28 27 28 16 353 336 334 336 338 331
120 131 137 134 132 132 137 144 148 149 147 146 147 149 148 148 149 149 152 155 158 161 165 166 162 159 156 154 150 148 148 146 144 142 144 146 150 154 153 151 150 151 151 150 151 153 155 161 172 179 177 150 52 355 347 344 342 346 347 348 353 359 2 4 4 3 356 346 339 331 334 346 353 17 24 26 26 23 26 5 328 324 330 334 326
125 130 134 132 132 132 137 145 149 150 150 148 146 148 150 150 149 148 152 156 159 160 163 164 159 157 157 154 150 150 151 148 144 142 146 150 156 158 156 155 156 156 157 159 161 162 166 173 183 189 184 173 346 334 331 330 334 341 345 348 353 354 356 358 357 1 356 342 338 333 334 343 352 24 28 25 23 18 28 34 342 317 322 329 326
149 135 134 131 131 132 137 143 147 148 148 148 146 149 151 151 148 148 150 155 158 159 161 160 156 156 156 154 153 155 155 151 146 146 151 156 162 161 160 159 159 161 166 169 169 169 176 186 192 197 200 244 304 315 315 319 328 335 343 348 348 348 350 352 354 357 350 338 339 337 331 343 2 27 28 21 20 20 31 38 3 322 322 328 333
156 139 136 133 133 137 140 142 145 146 147 148 148 151 154 152 151 151 152 153 156 158 158 155 156 158 158 158 159 158 158 157 155 157 159 164 167 165 165 164 165 169 175 175 174 178 184 192 196 200 213 258 288 298 304 314 325 334 344 346 344 344 347 349 350 350 342 338 349 350 341 360 23 36 30 18 13 14 24 35 17 330 321 327 334
159 142 139 142 147 149 150 148 148 150 150 151 153 156 158 156 155 154 153 153 153 157 157 156 159 163 164 163 162 163 166 167 166 169 169 173 174 172 172 171 173 177 179 178 180 186 190 193 196 198 217 256 277 290 303 317 330 340 344 343 343 343 346 346 345 344 341 346 3 5 356 7 47 44 34 20 8 6 13 19 9 340 325 330 335
174 156 156 163 168 167 163 157 157 162 162 160 162 164 162 159 158 155 153 152 153 157 160 160 161 163 166 168 169 171 174 174 172 175 179 183 183 180 178 177 180 183 182 182 185 189 192 195 196 200 222 254 276 292 312 327 338 344 343 342 342 340 340 339 342 350 348 350 6 7 356 9 43 33 29 17 4 3 8 9 2 349 337 336 338
187 173 182 180 175 177 172 170 179 178 175 173 172 171 169 163 160 156 153 153 155 158 161 165 163 163 167 170 174 177 178 177 175 180 186 189 190 187 182 182 185 187 185 187 190 191 194 197 197 203 230 260 281 303 326 336 342 342 339 338 336 334 335 335 344 358 353 350 5 5 355 8 24 19 17 11 5 5 4 5 1 355 348 343 342
198 185 200 191 184 189 184 187 199 194 186 182 179 177 177 176 167 157 154 157 161 161 163 166 164 165 169 169 172 178 179 178 178 183 192 191 193 191 187 188 189 190 190 192 194 193 195 199 201 207 239 267 284 316 335 338 339 335 331 331 330 329 334 342 346 349 348 354 7 2 350 2 11 10 9 3 8 10 5 4 2 358 355 350 346
199 193 217 210 198 199 192 199 209 203 196 189 183 184 186 187 177 166 165 165 166 167 168 168 166 167 171 172 174 179 181 180 180 186 193 194 195 194 192 192 193 194 194 196 196 196 199 202 203 209 239 262 285 322 329 330 329 323 323 324 326 330 337 346 345 338 345 356 9 2 345 353 3 1 3 2 10 12 8 7 4 2 360 354 348
194 196 219 225 216 210 197 201 218 215 206 199 191 191 193 195 187 180 180 176 176 176 176 175 168 165 168 174 176 180 183 182 182 187 193 198 199 197 195 195 197 198 199 199 199 199 203 204 202 209 236 256 282 325 323 329 326 318 320 322 327 336 340 344 342 340 349 359 9 4 347 350 354 355 3 7 11 12 10 10 7 2 358 353 347
209 217 219 214 214 218 210 206 223 226 218 210 203 200 198 199 194 186 186 183 183 184 184 185 177 168 166 170 176 178 180 184 190 192 194 198 200 199 198 202 204 203 203 202 203 202 204 204 199 207 231 250 263 309 319 332 330 319 322 328 334 341 341 340 340 344 352 359 6 3 357 352 348 357 8 9 11 12 12 10 6 359 353 351 348
185 223 244 232 219 218 218 218 223 222 212 205 202 205 201 199 198 194 195 189 186 188 187 191 191 179 172 171 175 176 176 187 196 194 192 194 197 200 204 211 211 208 208 206 203 202 204 201 191 194 212 240 258 285 308 327 325 321 329 334 338 341 340 338 337 344 350 353 358 359 1 3 357 2 6 7 11 14 13 8 2 357 352 351 347
180 178 219 237 223 211 213 214 218 218 205 202 209 212 208 200 201 207 213 203 192 193 192 198 199 184 177 176 174 174 176 185 194 193 189 195 200 204 213 217 213 210 209 206 202 201 201 195 188 184 193 229 252 267 293 326 320 321 333 333 332 333 332 333 333 339 342 340 349 354 354 11 8 360 359 3 13 16 13 7 357 355 352 347 345
247 185 196 220 221 209 207 206 213 221 215 221 232 223 216 210 205 210 221 218 205 201 200 205 201 185 180 180 176 174 177 183 189 191 191 199 203 207 217 216 209 209 208 207 202 197 192 188 193 185 185 226 244 256 277 321 312 310 325 327 328 326 324 328 328 333 336 336 343 348 350 7 6 356 353 357 12 14 11 6 353 353 353 346 343
283 251 210 213 225 218 203 199 208 223 227 230 235 222 217 218 214 213 219 218 214 209 203 204 201 193 188 184 180 175 179 186 186 189 193 201 204 206 213 208 204 202 202 208 200 190 184 185 200 196 195 223 239 258 271 286 299 300 312 327 330 322 320 319 320 333 337 335 340 345 350 357 357 355 354 357 8 8 3 1 352 353 353 346 341
300 285 260 221 227 232 213 212 210 221 233 234 229 219 217 220 217 215 219 219 221 218 207 201 199 198 198 192 190 189 189 189 186 186 192 200 204 207 208 201 198 194 196 204 197 191 181 184 201 206 209 221 239 266 276 285 289 288 303 340 334 318 311 305 320 345 340 334 339 348 354 352 350 352 356 0 4 3 357 354 350 351 352 346 340
309 295 294 276 220 222 222 231 221 214 225 234 236 227 223 220 214 213 222 225 224 219 212 208 200 198 203 199 198 199 196 190 186 184 189 202 207 207 205 194 187 185 192 197 194 195 183 186 197 210 222 225 247 266 275 285 284 288 315 335 328 321 314 312 342 2 352 344 341 353 360 352 347 343 347 354 357 359 355 350 345 347 353 349 343
321 308 307 302 279 230 225 234 230 227 221 219 231 235 234 220 209 212 214 218 219 211 213 216 205 200 201 200 202 202 198 193 188 184 186 204 210 207 200 185 178 185 194 191 188 196 197 196 196 211 223 230 272 286 298 309 312 308 311 299 285 12 335 331 359 14 9 355 342 356 1 351 346 339 341 347 350 355 354 349 342 345 355 351 346
332 312 304 299 295 274 240 247 248 249 237 218 217 227 235 222 208 212 207 207 216 209 211 213 202 203 203 200 203 203 203 195 185 185 186 199 210 206 188 171 181 195 202 193 191 198 202 211 210 225 231 262 319 325 313 308 307 299 294 304 9 35 6 1 11 19 13 348 338 358 6 357 348 342 342 343 350 354 353 349 342 346 355 351 348
332 319 314 309 307 302 275 263 255 252 245 230 226 225 231 229 213 208 204 206 215 209 206 197 187 195 205 203 204 204 207 194 180 188 190 196 206 202 184 180 188 193 208 214 216 204 197 221 211 243 302 313 310 289 285 288 291 299 300 308 26 19 345 347 7 21 8 337 343 352 6 7 346 339 341 340 352 357 351 348 346 350 355 354 352
327 334 333 324 318 312 297 282 266 255 244 231 229 230 233 235 219 205 206 206 206 204 206 192 182 189 200 202 207 207 204 190 182 191 194 193 195 191 182 184 188 185 199 210 219 213 205 295 225 237 260 268 285 275 282 299 316 324 319 322 31 19 350 354 14 30 358 341 355 350 5 12 344 336 343 344 356 1 354 348 351 356 358 358 354
324 347 341 330 324 314 307 300 288 277 269 251 232 229 235 236 222 213 217 210 205 204 195 187 186 198 203 201 209 208 198 190 194 197 194 188 185 184 178 177 184 188 194 182 174 208 206 227 241 257 236 262 293 305 300 310 327 326 326 335 360 16 14 18 19 15 347 346 6 1 12 11 346 341 346 354 1 6 4 350 352 2 1 358 355
323 340 341 335 331 321 317 316 312 307 297 284 257 239 242 240 223 221 224 214 210 199 188 191 198 212 212 208 215 208 198 199 202 201 191 183 178 174 172 174 179 190 192 159 167 222 240 221 241 290 268 262 291 307 302 310 326 319 337 349 351 11 25 31 31 16 351 2 24 16 19 13 353 349 346 356 6 11 16 359 354 3 3 359 357
320 328 341 345 335 328 339 340 328 314 295 287 281 265 255 245 225 222 226 217 207 196 196 202 203 209 211 212 217 207 203 205 204 199 185 177 172 166 172 179 176 179 181 167 183 205 253 247 188 299 279 287 311 303 304 323 336 334 3 7 357 5 15 34 41 21 356 17 33 27 27 15 7 5 350 356 10 12 18 14 2 360 1 2 360
316 319 334 348 332 337 4 349 323 306 295 291 292 282 266 251 233 226 231 223 212 204 201 199 197 204 207 208 212 206 204 204 200 191 176 168 164 164 171 177 171 173 183 189 198 186 193 213 176 255 283 321 332 308 317 340 347 345 8 17 360 1 13 30 30 17 13 9 13 25 25 17 16 19 6 6 21 14 14 25 11 357 1 5 2
336 310 319 333 330 352 8 342 319 315 306 307 302 286 278 261 244 232 231 226 220 217 208 201 203 206 206 209 209 205 202 198 191 178 167 164 162 163 168 171 167 167 181 199 211 194 183 197 178 184 246 301 327 336 336 344 356 355 16 24 8 11 21 31 25 24 20 354 348 12 17 24 23 16 13 17 27 16 13 26 12 354 4 7 4
337 321 320 325 340 11 358 326 321 316 300 311 299 279 278 261 244 227 225 224 217 221 213 209 214 211 212 217 206 199 195 185 180 167 161 162 161 159 164 171 167 161 172 196 214 200 194 176 153 167 201 327 349 3 340 344 7 8 33 33 21 22 18 34 34 25 20 3 1 17 8 19 15 1 15 23 23 16 18 26 6 353 6 10 7
329 333 339 333 345 15 349 323 326 325 326 336 304 273 269 251 238 224 222 216 204 212 211 208 215 216 217 218 199 187 180 174 171 160 156 159 159 158 165 171 165 159 165 180 198 184 171 151 123 139 142 18 341 338 321 360 24 11 27 32 29 25 19 32 26 12 9 5 17 26 2 3 3 7 30 31 22 19 22 24 6 357 7 13 11
327 328 341 339 343 1 343 327 327 327 333 329 306 274 260 240 223 214 210 209 203 201 202 200 205 209 208 202 185 171 168 168 163 155 154 160 164 164 166 168 164 165 167 165 175 190 183 152 133 145 105 9 313 324 335 14 41 24 27 36 34 29 20 8 8 13 6 356 19 27 358 352 9 22 35 34 31 26 16 15 11 7 10 13 15
322 317 323 336 352 357 342 338 333 326 328 317 302 274 256 230 197 192 184 191 198 188 191 196 195 196 192 182 170 162 163 162 157 155 158 164 171 169 166 170 171 169 170 160 154 176 199 165 146 142 54 321 293 333 5 17 35 31 29 42 45 40 24 6 17 34 25 13 26 20 356 4 18 24 31 31 35 31 17 10 9 13 17 15 17
300 302 307 324 347 353 347 354 345 329 334 332 298 256 233 201 185 185 176 173 183 181 173 181 193 189 175 167 162 155 158 159 157 159 163 170 173 171 172 178 177 169 170 163 153 171 196 187 171 158 260 270 287 346 14 14 25 27 28 42 45 42 35 27 39 44 31 33 36 14 7 21 22 22 28 34 39 38 30 17 6 11 20 18 21
285 292 304 308 317 23 13 357 343 326 360 16 274 237 200 169 167 176 177 169 178 189 167 168 195 187 165 160 155 151 155 157 161 164 170 178 177 174 182 183 179 173 170 169 168 183 200 201 203 227 250 243 262 341 13 23 30 31 29 38 36 35 36 23 26 35 34 38 37 21 24 33 28 23 25 32 36 41 46 37 18 13 17 19 29
289 293 297 290 294 65 41 345 339 357 54 72 193 205 169 143 147 167 173 163 168 183 180 182 192 181 165 157 152 152 156 160 166 170 175 183 181 179 189 191 187 179 173 178 180 187 202 204 199 216 228 212 217 271 7 43 42 37 28 31 30 34 39 19 15 25 23 25 22 18 32 38 31 24 25 30 29 35 45 47 35 19 13 17 33
271 277 281 291 314 51 60 351 352 354 49 113 166 171 156 142 149 162 160 152 159 172 186 189 186 177 166 156 154 155 159 166 170 173 181 186 183 185 194 198 196 187 179 187 189 190 197 195 190 195 193 190 222 262 346 18 33 40 27 30 33 34 40 37 30 22 15 22 26 29 36 34 29 24 29 33 28 26 35 48 54 37 18 22 36
244 256 274 296 314 323 218 121 75 351 359 177 170 162 160 150 147 145 140 146 159 173 186 187 180 173 164 157 156 159 162 169 172 177 186 186 184 193 199 199 196 192 187 191 195 195 194 188 192 203 187 187 208 250 348 9 27 41 35 32 33 32 39 44 43 37 31 31 37 40 30 24 29 29 29 34 29 21 20 21 42 46 30 31 41
234 246 261 274 277 263 267 102 113 89 193 189 168 160 156 145 136 130 134 153 165 180 187 184 174 166 161 157 157 160 165 171 177 184 187 187 195 201 202 202 199 197 196 196 194 198 204 197 195 204 184 172 177 177 123 45 19 23 32 29 26 32 44 47 45 47 43 35 36 39 31 30 41 36 30 36 32 25 17 5 13 41 36 36 44
225 241 251 253 254 241 249 232 136 118 164 169 153 167 157 144 141 137 143 154 160 180 189 178 168 163 160 158 158 164 169 175 181 185 188 192 204 207 206 205 203 201 201 200 194 196 212 205 192 190 169 165 177 180 173 163 306 340 9 17 22 30 39 45 46 49 50 46 36 35 40 46 49 42 39 41 33 25 24 19 26 40 40 41 48
221 237 246 248 250 239 234 241 163 108 119 135 139 170 166 156 154 148 150 156 158 173 183 173 165 163 162 161 163 169 174 179 182 185 193 199 205 209 208 206 205 203 201 200 197 194 202 200 188 179 173 184 197 203 214 225 278 336 360 12 20 21 28 38 46 51 54 54 39 36 45 41 37 42 43 44 38 25 26 33 34 36 39 39 42
219 220 226 235 241 242 236 239 233 143 149 145 140 165 178 170 164 158 156 160 167 174 178 173 171 171 170 168 169 174 178 183 186 189 197 202 207 208 206 207 207 205 201 199 200 197 196 196 186 186 205 217 218 231 252 262 288 343 347 360 8 7 19 30 36 46 51 49 37 39 46 38 34 38 35 38 41 29 26 30 33 35 37 36 36
Height
5879 5880 5881 5882 5883 5885 5886 5887 5888 5888 5889 5890 5891 5891 5892 5892 5892 5892 5892 5892 5892 5892 5891 5892 5892 5892 5892 5892 5892 5893 5893 5893 5894 5894 5894 5894 5894 5894 5894 5895 5896 5896 5896 5897 5897 5897 5897 5898 5898 5899 5900 5900 5901 5900 5900 5900 5900 5900 5900 5900 5900 5900 5900 5900 5899 5899 5899 5898 5898 5897 5897 5897 5898 5901 5902 5901 5901 5901 5900 5900 5901 5900 5900 5901 5902
5878 5879 5880 5881 5883 5885 5886 5887 5888 5888 5889 5890 5890 5891 5891 5892 5892 5891 5891 5891 5891 5891 5891 5892 5892 5892 5892 5892 5893 5893 5894 5894 5894 5895 5895 5895 5895 5895 5895 5895 5896 5896 5897 5897 5897 5897 5897 5898 5898 5899 5900 5901 5901 5901 5901 5901 5901 5901 5900 5900 5900 5900 5900 5899 5899 5899 5899 5898 5898 5897 5897 5898 5898 5900 5901 5900 5900 5899 5899 5899 5900 5900 5900 5900 5900
5878 5879 5880 5881 5883 5884 5886 5887 5888 5888 5889 5889 5890 5890 5891 5891 5891 5891 5891 5891 5891 5891 5892 5892 5892 5892 5893 5893 5893 5894 5895 5895 5895 5895 5895 5895 5895 5895 5896 5896 5896 5896 5897 5897 5897 5897 5897 5898 5898 5899 5899 5900 5901 5901 5902 5902 5902 5902 5901 5901 5901 5900 5900 5900 5900 5899 5899 5898 5898 5898 5898 5899 5899 5899 5899 5899 5898 5898 5898 5898 5899 5899 5899 5900 5900
5878 5879 5880 5881 5883 5885 5886 5887 5887 5888 5889 5889 5890 5890 5890 5890 5891 5891 5891 5891 5891 5891 5892 5892 5892 5893 5893 5893 5894 5895 5895 5896 5896 5896 5896 5896 5896 5896 5896 5896 5896 5897 5897 5897 5898 5898 5898 5898 5898 5898 5899 5899 5900 5901 5901 5902 5902 5902 5902 5902 5901 5901 5901 5900 5900 5900 5899 5898 5898 5898 5898 5899 5900 5899 5898 5898 5897 5897 5897 5897 5898 5898 5899 5899 5899
5878 5878 5879 5880 5882 5884 5886 5887 5887 5887 5888 5889 5889 5890 5890 5890 5890 5890 5890 5891 5891 5891 5892 5892 5893 5893 5894 5894 5894 5895 5896 5896 5896 5897 5897 5897 5897 5897 5897 5897 5897 5897 5898 5898 5898 5898 5898 5898 5898 5899 5899 5899 5900 5900 5901 5901 5901 5901 5901 5901 5901 5901 5901 5901 5900 5900 5899 5899 5898 5899 5898 5898 5899 5899 5898 5897 5896 5896 5896 5897 5897 5898 5898 5899 5898
5878 5878 5878 5879 5881 5883 5884 5886 5886 5886 5887 5888 5889 5889 5890 5890 5890 5890 5890 5891 5891 5891 5892 5892 5893 5893 5894 5894 5895 5895 5896 5896 5897 5897 5898 5898 5898 5898 5898 5898 5898 5898 5899 5899 5899 5899 5899 5899 5899 5899 5899 5900 5900 5900 5900 5901 5901 5901 5901 5901 5901 5901 5901 5901 5901 5900 5899 5899 5898 5898 5898 5898 5899 5899 5898 5896 5896 5895 5896 5896 5896 5897 5897 5898 5897
5878 5878 5878 5879 5880 5881 5883 5884 5885 5886 5886 5887 5888 5889 5889 5890 5890 5891 5891 5891 5892 5892 5892 5893 5893 5894 5894 5895 5895 5896 5896 5897 5897 5898 5898 5898 5898 5899 5899 5899 5899 5899 5899 5900 5900 5900 5900 5900 5900 5900 5900 5900 5900 5901 5901 5901 5901 5901 5901 5901 5901 5902 5901 5901 5901 5900 5899 5899 5898 5897 5897 5897 5898 5898 5897 5896 5895 5895 5895 5896 5896 5896 5896 5897 5896
5878 5878 5878 5879 5879 5880 5881 5883 5884 5885 5886 5887 5888 5888 5889 5890 5890 5891 5891 5892 5892 5892 5893 5893 5894 5894 5895 5895 5896 5896 5897 5897 5898 5898 5898 5898 5899 5899 5900 5900 5900 5900 5900 5900 5900 5900 5900 5901 5901 5901 5901 5901 5901 5901 5901 5901 5901 5901 5901 5901 5902 5902 5901 5901 5901 5900 5900 5899 5899 5898 5897 5897 5897 5897 5896 5896 5895 5895 5895 5895 5895 5895 5895 5895 5896
5878 5879 5879 5879 5879 5880 5880 5881 5882 5884 5885 5886 5887 5888 5889 5890 5890 5891 5892 5892 5893 5893 5893 5893 5894 5894 5895 5896 5896 5897 5897 5898 5898 5898 5898 5899 5899 5900 5900 5900 5900 5900 5901 5901 5901 5901 5901 5902 5902 5902 5902 5902 5902 5901 5901 5901 5902 5902 5902 5902 5902 5902 5902 5902 5901 5901 5900 5900 5899 5899 5898 5897 5898 5897 5896 5896 5895 5895 5895 5895 5894 5894 5894 5894 5895
5879 5879 5880 5879 5879 5879 5879 5880 5882 5883 5884 5886 5887 5888 5889 5890 5891 5892 5892 5893 5893 5893 5894 5894 5894 5895 5895 5896 5897 5897 5898 5898 5898 5898 5898 5899 5899 5900 5900 5900 5901 5901 5901 5901 5901 5902 5902 5902 5902 5902 5902 5902 5902 5902 5902 5902 5902 5902 5902 5902 5902 5902 5902 5902 5902 5902 5901 5900 5900 5899 5898 5898 5898 5897 5896 5896 5895 5895 5894 5894 5894 5893 5893 5893 5893
5879 5879 5879 5879 5879 5879 5879 5880 5882 5883 5884 5886 5887 5888 5889 5890 5891 5892 5893 5893 5893 5894 5894 5894 5895 5895 5896 5896 5897 5898 5898 5898 5899 5899 5899 5899 5900 5900 5901 5901 5901 5901 5902 5902 5902 5902 5902 5903 5903 5903 5903 5903 5902 5902 5902 5903 5903 5903 5903 5903 5903 5903 5903 5903 5903 5902 5901 5901 5901 5900 5899 5898 5897 5897 5896 5895 5895 5894 5893 5893 5893 5892 5892 5892 5893
5878 5879 5880 5880 5880 5880 5880 5882 5883 5884 5885 5886 5887 5888 5889 5890 5891 5892 5893 5893 5894 5894 5895 5895 5895 5896 5896 5897 5897 5898 5898 5899 5899 5900 5900 5900 5901 5901 5901 5902 5902 5902 5902 5903 5903 5903 5903 5903 5903 5903 5903 5903 5902 5902 5902 5903 5903 5903 5903 5903 5903 5904 5904 5904 5903 5902 5902 5901 5901 5900 5899 5898 5897 5896 5895 5894 5894 5894 5893 5892 5892 5892 5892 5892 5892
5879 5880 5881 5881 5882 5882 5882 5883 5884 5885 5886 5886 5888 5889 5890 5890 5891 5892 5893 5893 5894 5895 5895 5895 5896 5896 5896 5896 5897 5898 5898 5899 5899 5900 5901 5901 5901 5902 5902 5902 5903 5903 5903 5903 5904 5904 5903 5904 5904 5903 5903 5903 5902 5902 5903 5903 5904 5904 5904 5904 5904 5904 5904 5904 5903 5902 5901 5901 5900 5900 5899 5898 5897 5896 5895 5894 5894 5894 5893 5892 5892 5891 5891 5892 5892
5881 5882 5882 5883 5883 5884 5884 5885 5885 5885 5886 5887 5888 5889 5890 5891 5892 5892 5893 5893 5894 5895 5895 5896 5896 5896 5896 5896 5897 5898 5898 5899 5900 5901 5902 5902 5902 5903 5903 5903 5903 5904 5904 5904 5904 5904 5904 5904 5904 5903 5903 5903 5903 5903 5903 5903 5904 5904 5904 5904 5904 5904 5904 5903 5903 5902 5901 5900 5900 5899 5899 5898 5897 5896 5895 5894 5894 5894 5893 5892 5892 5891 5891 5891 5892
5882 5882 5883 5883 5884 5885 5885 5886 5886 5886 5887 5888 5888 5889 5890 5891 5892 5893 5893 5894 5894 5895 5895 5896 5896 5897 5897 5897 5897 5898 5898 5899 5900 5901 5902 5903 5903 5903 5903 5903 5904 5904 5904 5904 5904 5904 5904 5904 5904 5903 5903 5903 5903 5903 5904 5904 5904 5905 5905 5905 5904 5904 5904 5904 5903 5902 5901 5901 5900 5899 5899 5898 5897 5896 5895 5894 5894 5893 5893 5892 5892 5891 5891 5891 5891
5882 5882 5883 5883 5884 5885 5886 5887 5887 5887 5888 5888 5889 5890 5890 5891 5892 5893 5893 5894 5894 5895 5895 5896 5897 5897 5897 5897 5898 5898 5898 5899 5900 5901 5902 5903 5903 5904 5904 5904 5904 5904 5904 5904 5904 5904 5904 5904 5904 5904 5903 5904 5904 5904 5904 5905 5905 5906 5906 5906 5906 5906 5905 5905 5904 5903 5902 5901 5900 5899 5899 5898 5897 5897 5895 5894 5894 5893 5893 5892 5892 5892 5891 5891 5891
5881 5882 5883 5884 5885 5886 5887 5887 5888 5888 5889 5889 5890 5890 5891 5891 5892 5893 5893 5894 5895 5895 5895 5896 5896 5897 5897 5897 5898 5898 5899 5900 5901 5902 5902 5903 5904 5904 5904 5904 5904 5905 5905 5904 5904 5905 5905 5905 5904 5904 5904 5905 5905 5905 5905 5906 5906 5907 5907 5907 5907 5907 5906 5905 5904 5903 5903 5902 5900 5899 5899 5898 5898 5897 5895 5894 5894 5893 5893 5893 5893 5893 5892 5892 5892
5881 5882 5884 5885 5886 5887 5887 5888 5889 5889 5889 5889 5890 5891 5891 5892 5892 5893 5893 5894 5894 5895 5895 5896 5896 5897 5897 5898 5898 5899 5900 5900 5901 5902 5903 5903 5904 5904 5904 5904 5905 5905 5905 5905 5905 5905 5905 5905 5905 5905 5906 5906 5906 5906 5906 5906 5907 5907 5907 5908 5908 5907 5906 5905 5904 5903 5902 5901 5900 5899 5899 5898 5897 5897 5896 5895 5895 5894 5894 5893 5894 5894 5893 5893 5893
5882 5883 5884 5885 5886 5887 5888 5889 5889 5889 5889 5890 5890 5891 5892 5892 5892 5893 5893 5894 5894 5894 5895 5896 5897 5898 5898 5898 5899 5900 5900 5901 5902 5902 5903 5903 5904 5904 5904 5904 5905 5905 5906 5906 5906 5906 5905 5905 5906 5906 5906 5906 5906 5906 5907 5907 5907 5907 5907 5907 5907 5906 5906 5905 5904 5903 5902 5901 5900 5899 5899 5898 5897 5897 5896 5896 5895 5895 5895 5895 5895 5895 5895 5894 5894
5883 5884 5885 5886 5887 5887 5888 5889 5889 5890 5890 5890 5890 5891 5892 5892 5892 5893 5893 5893 5894 5894 5895 5896 5897 5898 5898 5899 5899 5900 5901 5901 5902 5902 5903 5903 5904 5904 5904 5905 5905 5906 5906 5906 5906 5906 5906 5906 5907 5907 5907 5907 5907 5907 5907 5907 5907 5906 5906 5906 5905 5905 5905 5905 5903 5902 5902 5901 5900 5899 5899 5898 5897 5897 5897 5897 5896 5896 5896 5895 5895 5895 5895 5895 5894
5885 5885 5885 5886 5886 5887 5888 5888 5889 5890 5890 5891 5891 5891 5891 5892 5893 5893 5894 5894 5894 5895 5895 5896 5897 5898 5898 5899 5900 5901 5901 5902 5902 5903 5903 5904 5904 5904 5905 5906 5906 5906 5907 5907 5906 5906 5906 5907 5907 5908 5907 5907 5908 5908 5908 5908 5907 5907 5906 5906 5906 5905 5905 5905 5904 5903 5901 5900 5899 5899 5899 5898 5897 5897 5897 5897 5897 5896 5896 5896 5896 5895 5895 5894 5894
5885 5885 5886 5886 5886 5887 5888 5888 5889 5890 5890 5891 5891 5891 5891 5892 5893 5893 5894 5894 5894 5895 5896 5896 5897 5898 5899 5899 5900 5901 5902 5902 5902 5903 5903 5904 5904 5905 5905 5906 5907 5907 5907 5907 5907 5907 5907 5908 5908 5909 5908 5908 5909 5909 5909 5908 5908 5907 5907 5907 5907 5906 5906 5905 5905 5903 5901 5900 5899 5898 5898 5897 5897 5897 5897 5897 5897 5897 5896 5896 5895 5895 5894 5893 5893
5884 5884 5885 5886 5888 5887 5888 5888 5889 5890 5891 5891 5891 5891 5892 5892 5893 5893 5894 5894 5894 5895 5896 5897 5898 5898 5899 5899 5900 5901 5902 5903 5903 5903 5904 5904 5905 5905 5906 5907 5907 5907 5908 5908 5908 5908 5908 5909 5909 5910 5909 5909 5910 5910 5909 5910 5909 5908 5908 5908 5907 5907 5906 5906 5905 5904 5902 5900 5899 5898 5897 5897 5897 5897 5897 5897 5897 5897 5896 5896 5895 5894 5893 5893 5893
5885 5884 5884 5885 5887 5887 5888 5889 5889 5890 5891 5891 5892 5892 5892 5892 5893 5893 5894 5894 5894 5895 5896 5897 5897 5898 5899 5900 5901 5901 5902 5902 5903 5904 5904 5905 5905 5906 5907 5907 5908 5908 5909 5909 5909 5909 5909 5909 5910 5911 5910 5910 5910 5911 5911 5911 5910 5909 5909 5908 5907 5907 5907 5906 5905 5904 5902 5900 5899 5898 5897 5896 5896 5896 5896 5896 5896 5896 5896 5895 5894 5893 5893 5894 5893
5887 5887 5885 5885 5886 5887 5888 5889 5889 5890 5891 5891 5891 5892 5892 5893 5893 5894 5894 5894 5895 5895 5896 5897 5897 5898 5899 5900 5901 5902 5902 5902 5903 5904 5905 5905 5906 5906 5907 5908 5908 5909 5909 5910 5910 5909 5909 5910 5911 5911 5911 5910 5910 5911 5911 5911 5911 5910 5909 5908 5907 5907 5907 5906 5904 5903 5902 5901 5899 5898 5897 5896 5896 5895 5895 5895 5896 5896 5896 5895 5894 5893 5893 5893 5892
5885 5887 5887 5886 5886 5887 5888 5889 5889 5889 5889 5890 5890 5891 5892 5892 5893 5894 5894 5895 5895 5896 5896 5897 5897 5898 5899 5900 5901 5901 5901 5902 5903 5905 5906 5906 5906 5907 5908 5909 5909 5909 5910 5910 5910 5910 5910 5910 5911 5911 5911 5911 5910 5911 5912 5912 5911 5910 5909 5908 5907 5907 5907 5905 5904 5903 5902 5901 5900 5899 5898 5897 5896 5895 5894 5895 5895 5896 5896 5895 5894 5893 5893 5893 5892
5883 5885 5887 5886 5885 5886 5887 5888 5888 5888 5888 5888 5889 5890 5891 5892 5892 5893 5894 5894 5895 5895 5896 5897 5898 5898 5899 5900 5901 5901 5901 5902 5904 5905 5906 5906 5906 5907 5908 5909 5909 5909 5910 5910 5910 5910 5910 5911 5911 5912 5912 5912 5911 5911 5911 5912 5912 5910 5909 5909 5908 5907 5906 5905 5904 5903 5902 5901 5900 5900 5899 5898 5897 5895 5895 5895 5895 5895 5895 5895 5894 5894 5893 5893 5892
5882 5883 5885 5886 5885 5885 5885 5886 5887 5888 5888 5887 5888 5889 5890 5891 5892 5893 5894 5894 5894 5895 5896 5897 5897 5898 5899 5900 5900 5900 5901 5903 5904 5905 5905 5906 5906 5907 5908 5908 5908 5909 5909 5909 5909 5910 5911 5911 5911 5911 5911 5912 5911 5911 5911 5911 5911 5910 5909 5909 5908 5907 5906 5905 5904 5902 5902 5901 5900 5900 5899 5899 5898 5897 5896 5895 5896 5895 5895 5894 5894 5894 5893 5893 5891
5883 5882 5883 5885 5886 5885 5884 5885 5886 5887 5888 5887 5888 5889 5889 5890 5891 5892 5893 5894 5893 5894 5896 5896 5897 5898 5898 5899 5900 5900 5901 5903 5904 5904 5905 5905 5906 5907 5907 5907 5908 5908 5908 5908 5909 5910 5911 5911 5911 5911 5911 5912 5912 5912 5912 5912 5911 5910 5909 5909 5908 5906 5905 5906 5904 5902 5902 5901 5900 5900 5899 5899 5898 5897 5897 5896 5896 5895 5895 5894 5894 5893 5893 5892 5891
5884 5883 5883 5883 5885 5886 5886 5885 5885 5886 5887 5887 5888 5889 5889 5890 5890 5891 5892 5893 5893 5893 5895 5896 5896 5897 5898 5899 5900 5901 5901 5903 5904 5904 5904 5905 5906 5906 5906 5907 5908 5908 5908 5908 5909 5910 5910 5911 5911 5911 5912 5913 5913 5913 5912 5913 5912 5911 5910 5908 5907 5905 5905 5906 5905 5902 5902 5902 5901 5900 5900 5899 5898 5897 5897 5897 5896 5896 5895 5895 5893 5893 5893 5892 5891
5885 5884 5883 5882 5883 5885 5886 5885 5885 5885 5886 5886 5887 5887 5888 5889 5890 5890 5891 5892 5892 5893 5895 5895 5896 5896 5897 5899 5900 5901 5902 5903 5903 5903 5904 5904 5905 5905 5905 5907 5907 5908 5908 5908 5908 5910 5910 5911 5912 5912 5913 5914 5913 5913 5912 5912 5912 5910 5909 5908 5907 5905 5905 5907 5905 5902 5901 5901 5901 5900 5900 5899 5898 5897 5897 5897 5896 5896 5896 5896 5894 5892 5892 5891 5890
5885 5884 5884 5883 5882 5883 5884 5884 5884 5884 5885 5885 5885 5886 5886 5887 5889 5890 5890 5890 5891 5893 5894 5895 5896 5897 5898 5898 5900 5901 5902 5902 5902 5902 5903 5904 5904 5905 5905 5906 5907 5908 5908 5908 5909 5910 5911 5912 5913 5913 5913 5914 5913 5912 5911 5910 5909 5909 5908 5908 5908 5906 5904 5905 5904 5900 5901 5901 5900 5901 5900 5899 5899 5898 5897 5897 5897 5897 5896 5896 5895 5893 5893 5892 5890
5885 5884 5884 5883 5882 5882 5881 5882 5883 5884 5885 5884 5885 5885 5884 5885 5887 5888 5888 5889 5890 5892 5892 5892 5894 5896 5898 5898 5899 5901 5901 5900 5901 5902 5903 5903 5904 5905 5906 5906 5907 5907 5908 5909 5910 5911 5912 5912 5913 5913 5913 5913 5912 5912 5911 5909 5908 5908 5907 5908 5908 5906 5903 5903 5902 5901 5902 5902 5901 5903 5901 5899 5900 5900 5898 5898 5897 5897 5896 5895 5895 5894 5893 5892 5890
5886 5885 5884 5883 5883 5882 5881 5881 5882 5883 5884 5884 5885 5885 5883 5884 5887 5886 5887 5887 5888 5890 5891 5891 5892 5895 5897 5898 5899 5899 5898 5899 5900 5902 5902 5903 5903 5904 5906 5907 5907 5907 5908 5910 5910 5911 5912 5912 5913 5913 5913 5912 5912 5911 5910 5910 5909 5908 5908 5907 5906 5904 5902 5901 5901 5902 5903 5903 5903 5903 5901 5900 5902 5902 5900 5898 5898 5898 5897 5895 5894 5894 5893 5892 5890
5887 5886 5884 5883 5883 5882 5882 5882 5882 5882 5882 5881 5883 5884 5884 5885 5887 5886 5885 5885 5886 5889 5890 5890 5893 5894 5895 5896 5896 5897 5897 5899 5900 5902 5902 5903 5904 5904 5905 5906 5906 5907 5909 5910 5910 5911 5912 5913 5913 5913 5913 5912 5911 5911 5910 5910 5909 5909 5908 5905 5903 5902 5902 5901 5902 5904 5905 5905 5904 5903 5902 5903 5904 5903 5901 5899 5898 5898 5897 5895 5894 5894 5894 5892 5890
5886 5886 5885 5883 5883 5883 5883 5884 5883 5882 5881 5880 5880 5882 5883 5884 5886 5885 5885 5885 5886 5888 5889 5890 5893 5894 5893 5894 5895 5896 5898 5899 5901 5901 5902 5902 5904 5904 5904 5905 5905 5907 5910 5911 5910 5911 5912 5913 5913 5913 5913 5912 5911 5910 5910 5910 5910 5909 5906 5904 5903 5903 5902 5903 5904 5905 5906 5905 5904 5903 5904 5905 5903 5901 5901 5900 5898 5898 5898 5897 5894 5894 5895 5893 5890
5885 5886 5885 5884 5883 5883 5884 5884 5883 5882 5882 5882 5881 5880 5881 5882 5883 5883 5884 5885 5884 5886 5888 5889 5891 5892 5893 5894 5895 5897 5898 5900 5900 5901 5901 5902 5903 5903 5903 5904 5905 5908 5910 5910 5910 5911 5912 5914 5914 5914 5913 5912 5911 5911 5910 5910 5909 5908 5907 5906 5906 5905 5904 5904 5904 5904 5905 5906 5905 5904 5906 5905 5903 5901 5901 5900 5898 5898 5899 5897 5895 5895 5895 5893 5890
5885 5885 5885 5885 5885 5884 5884 5883 5883 5882 5882 5882 5882 5881 5881 5881 5882 5882 5883 5884 5884 5885 5887 5888 5890 5891 5892 5893 5895 5896 5898 5899 5899 5900 5901 5902 5903 5903 5903 5904 5906 5908 5910 5909 5910 5911 5913 5914 5913 5913 5913 5912 5911 5911 5911 5911 5910 5909 5907 5907 5908 5908 5906 5905 5905 5905 5905 5905 5905 5904 5905 5904 5902 5902 5901 5899 5898 5898 5898 5897 5896 5896 5895 5893 5890
5885 5885 5885 5885 5886 5886 5883 5882 5883 5883 5882 5882 5882 5881 5881 5882 5882 5883 5883 5884 5885 5886 5886 5888 5889 5890 5891 5892 5894 5895 5897 5898 5899 5900 5901 5901 5902 5903 5904 5905 5906 5908 5909 5909 5910 5911 5913 5913 5913 5913 5912 5911 5911 5911 5911 5911 5911 5910 5908 5908 5909 5909 5907 5906 5906 5905 5905 5905 5904 5904 5904 5903 5902 5902 5901 5899 5898 5898 5898 5897 5897 5896 5895 5893 5889
5885 5885 5884 5884 5886 5886 5883 5882 5883 5882 5882 5882 5883 5883 5883 5883 5883 5884 5884 5885 5886 5886 5886 5887 5888 5889 5890 5892 5893 5895 5896 5897 5898 5899 5900 5901 5902 5903 5904 5905 5907 5908 5909 5910 5910 5911 5912 5913 5913 5913 5912 5911 5912 5912 5912 5911 5910 5910 5909 5909 5910 5909 5907 5907 5906 5906 5906 5905 5903 5903 5903 5903 5903 5903 5901 5899 5899 5898 5898 5898 5898 5897 5895 5892 5889
5885 5884 5884 5885 5886 5886 5885 5884 5882 5881 5881 5882 5883 5884 5884 5884 5884 5885 5885 5885 5885 5886 5886 5887 5888 5889 5890 5891 5893 5894 5895 5897 5898 5899 5900 5901 5902 5903 5904 5906 5907 5908 5909 5910 5911 5911 5912 5912 5913 5913 5912 5912 5912 5912 5912 5911 5911 5911 5910 5911 5911 5909 5907 5907 5907 5906 5906 5906 5903 5902 5904 5905 5903 5902 5901 5900 5899 5899 5899 5899 5898 5898 5895 5892 5889
5885 5884 5884 5885 5886 5885 5885 5884 5882 5882 5883 5883 5884 5884 5884 5884 5885 5885 5885 5884 5884 5886 5887 5887 5888 5889 5889 5891 5892 5894 5895 5897 5898 5899 5900 5901 5902 5903 5905 5906 5907 5908 5909 5910 5911 5911 5912 5912 5913 5913 5912 5912 5912 5912 5912 5911 5911 5911 5910 5911 5911 5909 5908 5907 5907 5907 5908 5907 5904 5904 5906 5905 5903 5901 5901 5901 5900 5899 5900 5899 5898 5898 5896 5892 5890
5885 5885 5884 5885 5886 5885 5883 5883 5883 5883 5883 5883 5884 5884 5884 5884 5884 5884 5884 5884 5884 5886 5887 5887 5888 5889 5889 5891 5892 5893 5895 5897 5898 5900 5901 5902 5903 5904 5905 5906 5907 5909 5909 5910 5910 5911 5911 5912 5912 5913 5912 5912 5912 5912 5911 5911 5911 5911 5911 5911 5910 5910 5909 5908 5907 5908 5908 5907 5906 5907 5907 5905 5903 5901 5901 5901 5901 5900 5900 5899 5898 5897 5896 5894 5891
5884 5884 5884 5885 5887 5885 5883 5882 5884 5885 5884 5883 5883 5884 5884 5884 5884 5884 5884 5884 5885 5886 5886 5887 5889 5890 5890 5891 5892 5893 5895 5897 5899 5900 5901 5902 5903 5904 5905 5906 5907 5908 5909 5910 5910 5911 5911 5912 5912 5912 5912 5913 5913 5912 5912 5912 5912 5912 5911 5911 5911 5910 5910 5909 5909 5909 5909 5908 5908 5908 5906 5904 5902 5902 5902 5902 5902 5902 5902 5901 5898 5896 5896 5895 5891
5883 5884 5884 5885 5886 5885 5884 5884 5884 5885 5884 5884 5884 5884 5885 5884 5884 5884 5885 5886 5886 5885 5886 5888 5890 5891 5891 5891 5892 5894 5895 5898 5899 5901 5902 5903 5904 5905 5906 5907 5907 5908 5909 5910 5910 5911 5911 5912 5912 5912 5913 5913 5913 5912 5912 5912 5912 5912 5911 5911 5911 5911 5911 5911 5911 5910 5909 5909 5909 5909 5907 5904 5902 5902 5902 5902 5903 5903 5903 5903 5900 5897 5897 5895 5892
5883 5884 5884 5884 5884 5884 5885 5885 5885 5884 5884 5885 5885 5885 5885 5884 5884 5885 5886 5887 5887 5887 5888 5889 5890 5891 5891 5891 5892 5894 5896 5898 5900 5901 5903 5903 5904 5905 5906 5907 5907 5908 5909 5910 5910 5911 5911 5912 5912 5913 5913 5912 5912 5912 5912 5912 5912 5912 5912 5912 5912 5912 5912 5912 5912 5912 5911 5911 5910 5909 5907 5905 5904 5904 5903 5903 5903 5903 5903 5904 5903 5901 5899 5895 5892
5883 5884 5883 5883 5883 5884 5885 5885 5885 5885 5885 5885 5885 5885 5885 5885 5885 5885 5886 5887 5888 5889 5890 5890 5891 5891 5891 5892 5893 5894 5897 5899 5900 5902 5903 5904 5904 5905 5906 5907 5908 5909 5909 5909 5910 5911 5911 5912 5912 5913 5913 5912 5912 5912 5912 5912 5912 5912 5912 5913 5913 5913 5913 5913 5914 5913 5912 5911 5911 5909 5907 5906 5907 5906 5905 5904 5903 5902 5902 5903 5904 5903 5901 5896 5891
5882 5883 5882 5882 5883 5885 5885 5885 5886 5886 5885 5886 5886 5886 5886 5885 5885 5885 5886 5888 5888 5890 5891 5891 5891 5891 5891 5892 5893 5895 5897 5899 5900 5902 5903 5904 5905 5906 5907 5907 5908 5909 5909 5910 5910 5911 5911 5912 5912 5913 5913 5912 5912 5912 5912 5912 5912 5912 5913 5913 5913 5913 5913 5914 5914 5914 5913 5911 5910 5909 5909 5908 5907 5907 5906 5905 5904 5902 5901 5902 5903 5903 5902 5898 5893
5881 5881 5882 5883 5884 5884 5883 5884 5885 5885 5885 5886 5886 5886 5886 5886 5885 5886 5886 5888 5889 5890 5891 5891 5891 5891 5892 5893 5894 5896 5898 5899 5901 5902 5903 5904 5905 5906 5907 5907 5908 5909 5909 5910 5910 5911 5911 5911 5912 5912 5912 5912 5912 5913 5912 5913 5913 5913 5913 5913 5913 5913 5913 5914 5914 5913 5913 5912 5910 5910 5910 5909 5908 5907 5907 5906 5905 5905 5904 5904 5903 5902 5900 5898 5895
5880 5881 5881 5882 5883 5883 5882 5883 5884 5884 5885 5886 5886 5886 5886 5886 5886 5886 5887 5888 5889 5890 5891 5892 5892 5893 5893 5894 5895 5896 5898 5899 5901 5902 5903 5904 5905 5906 5907 5908 5908 5909 5910 5910 5910 5911 5911 5911 5912 5912 5912 5912 5912 5913 5913 5913 5913 5913 5913 5913 5913 5913 5913 5914 5913 5913 5913 5912 5911 5911 5910 5910 5909 5908 5907 5907 5907 5907 5906 5904 5902 5901 5898 5896 5896
5880 5881 5882 5883 5883 5883 5883 5883 5884 5884 5885 5886 5886 5887 5887 5888 5888 5888 5888 5889 5890 5891 5892 5892 5893 5894 5895 5895 5896 5897 5899 5900 5901 5902 5903 5904 5906 5906 5907 5908 5909 5909 5910 5910 5910 5911 5911 5912 5912 5912 5912 5913 5913 5913 5913 5913 5913 5913 5913 5914 5914 5913 5913 5914 5914 5913 5913 5913 5913 5911 5911 5910 5909 5909 5909 5908 5908 5908 5906 5903 5901 5900 5899 5898 5898